Location: Leiter
(44.7178°N, 106.2687°W)
Time: 17:50:53
(UTC+00:00)

CUBESAT XI-V - Pass Details

Date: 08 July 2022
Orbit: 668 x 690 km, 98.1° (Epoch: 18 August)

Event Time Altitude Azimuth Distance (km) Brightness Sun altitude
Exits shadow 07:09:10 - 100° (E) 2,577 ? -22.8°
Reaches altitude 10° 07:11:25 10° 78° (ENE) 2,102 ? -22.8°
Maximum altitude 07:12:59 12° 58° (ENE) 1,989 ? -22.8°
Drops below altitude 10° 07:14:34 10° 38° (NE) 2,104 ? -22.8°
Sets 07:18:16 0° 7° (N) 3,023 ? -22.8°
